Weather Roundup
Issued by NWS Springfield, MO

Home | Current Version | Previous Version | Text Only | Print | Product List | Glossary On
Versions: 1 2 3 4 5 6 7 8 9 10 11 12 13 14 15 16 17 18 19 20 21 22 23 24 25 26 27 28 29 30 31 32 33 34 35 36 37 38 39 40 41 42 43 44 45 46 47 48 49 50
849
NZUS99 KSGF 290607
HRRSGF

HOURLY WEATHER
NATIONAL WEATHER SERVICE SPRINGFIELD MO
100 AM CDT MON AUG 29 2016

......SGF CWA......

CITY           SKY/WX    TMP DP  RH WIND       PRES   REMARKS
SPRINGFIELD    CLEAR     74  68  81 SE7       30.14F
6HR MIN TEMP:  73; 6HR MAX TEMP:  87;

JOPLIN         CLEAR     74  70  87 SE3       30.12F
6HR MIN TEMP:  74; 6HR MAX TEMP:  87;

WEST PLAINS    CLEAR     73  69  87 CALM      30.17F
6HR MIN TEMP:  72; 6HR MAX TEMP:  84;

ROLLA          CLEAR     74  71  91 SE7       30.16S
6HR MIN TEMP:  73; 6HR MAX TEMP:  84;

OSAGE BEACH    CLEAR     73  71  93 E3        30.15F
BRANSON        CLEAR     72  70  94 CALM      30.16S

......SURROUNDING SGF CWA......

CITY           SKY/WX    TMP DP  RH WIND       PRES   REMARKS
CHANUTE        CLEAR     72  69  90 CALM      30.12S
PARSONS        CLEAR     70  69  97 CALM      30.12S
COFFEYVILLE    CLEAR     74  68  81 CALM      30.10F
EMPORIA        PTCLDY    73  70  90 SE6       30.12F
GROVE OK       CLEAR     73  70  88 CALM      30.12S
ROGERS AR      CLEAR     74  70  87 SE5       30.14F
SILOAM SPRINGS PTCLDY    73  64  73 E5          N/A
HARRISON AR    CLEAR     71  70  96 CALM      30.15S
NEAR YELLVILLE CLEAR     73  70  88 CALM      30.10S

......KANSAS AND MISSOURI......

CITY           SKY/WX    TMP DP  RH WIND       PRES   REMARKS
KANSAS CTY INT CLOUDY    72  67  84 SE7       30.12F
DOWNTOWN KC    PTCLDY    72  68  87 E3        30.11F
COLUMBIA       CLEAR     75  73  93 E5        30.15F
SEDALIA        CLEAR     73  70  90 SE5       30.15S
ST JOSEPH      CLOUDY    72  68  87 E5        30.11F
ST LOUIS       PTCLDY    81  73  76 E5        30.15F
SPIRIT OF STL  CLEAR     75  74  96 NW3       30.13F
KIRKSVILLE     PTCLDY    73  70  90 E5        30.17F
WICHITA        CLOUDY    75  70  84 CALM      30.10F
TOPEKA         CLOUDY    75  69  81 S3        30.11F
OLATHE         CLEAR     72  67  84 SE3       30.13F

......TENNESSEE......

CITY           SKY/WX    TMP DP  RH WIND       PRES   REMARKS
MEMPHIS        PTCLDY    84  71  65 E6        30.07F
NASHVILLE      PTCLDY    75  68  78 NE5       30.13S

......ARKANSAS.......

CITY           SKY/WX    TMP DP  RH WIND       PRES   REMARKS
FAYETTEVILLE   PTCLDY    69  69 100 CALM      30.13F
FT SMITH       CLOUDY    76  72  87 NE6       30.08S
LITTLE ROCK    PTCLDY    80  74  81 N3        30.06S

......OKLAHOMA.......

CITY           SKY/WX    TMP DP  RH WIND       PRES   REMARKS
TULSA          PTCLDY    78  70  76 E3        30.08S
PONCA CITY     CLOUDY    74  69  85 SE7       30.09S
MCALESTER      CLOUDY    75  69  81 CALM      30.08F
OKLAHOMA CITY  PTCLDY    72  66  81 S5        30.09F

......IOWA............

CITY           SKY/WX    TMP DP  RH WIND       PRES   REMARKS
DES MOINES     FAIR      73  69  87 SE6       30.15F THUNDER
QUAD CITIES    FAIR      72  68  87 E7        30.19R

......ILLINOIS........

CITY           SKY/WX    TMP DP  RH WIND       PRES   REMARKS
QUINCY         PTCLDY    73  72  96 E6        30.16F
CHICAGO        MOCLDY    73  68  84 E5        30.22S




USA.gov is the U.S. government's official web portal to all federal, state and local government web resources and services.